When you browse on this site, cookies collect data to enhance your experience and personalize the content and advertising you see.
Visit our Privacy Policy to learn more. By continuing to use the site, you agree to this use of cookies and data.
  • In United Kingdom
  • List of Countries
  • For 7 days
  • Water Temperature
  • Satellite Maps
  • Weather Map
  • Weather Widgets
  • user-avatar
    Login

    Hourly Weather Islamabad

    Today, 25 April, Thursday

    Time Temperature Precipitation Wind Pressure Humidity
    00:00 +26°C° 0 mm 2 mps 715 mmHg 41%
    01:00 +25°C° 0 mm 3 mps 715 mmHg 42%
    02:00 +25°C° 0 mm 3 mps 714 mmHg 43%
    03:00 +25°C° 0 mm 3 mps 714 mmHg 43%
    04:00 +24°C° 0 mm 3 mps 714 mmHg 44%
    05:00 +23°C° 0 mm 2 mps 714 mmHg 50%
    06:00 +25°C° 0 mm 2 mps 715 mmHg 46%
    07:00 +27°C° 0 mm 2 mps 715 mmHg 42%
    08:00 +29°C° 0 mm 2 mps 716 mmHg 38%
    09:00 +30°C° 0 mm 2 mps 716 mmHg 33%
    10:00 +32°C° 0 mm 2 mps 716 mmHg 29%
    11:00 +34°C° 0 mm 1 mps 716 mmHg 24%
    12:00 +36°C° 0 mm 2 mps 716 mmHg 23%
    13:00 +36°C° 0 mm 2 mps 716 mmHg 22%
    14:00 +37°C° 0 mm 2 mps 715 mmHg 21%
    15:00 +37°C° 0 mm 2 mps 715 mmHg 21%
    16:00 +36°C° 0 mm 1 mps 714 mmHg 21%
    17:00 +35°C° 0 mm 1 mps 714 mmHg 21%
    18:00 +35°C° 0 mm 2 mps 714 mmHg 24%
    19:00 +32°C° 0 mm 2 mps 714 mmHg 27%
    20:00 +30°C° 0 mm 3 mps 714 mmHg 30%
    21:00 +29°C° 0.1 mm 3 mps 714 mmHg 33%
    22:00 +28°C° 0.1 mm 3 mps 714 mmHg 37%
    23:00 +27°C° 0.1 mm 3 mps 714 mmHg 40%

    Tomorrow, 26 April, Friday

    Time Temperature Precipitation Wind Pressure Humidity
    00:00 +26°C° 0.2 mm 4 mps 714 mmHg 40%
    01:00 +25°C° 0.2 mm 4 mps 713 mmHg 40%
    02:00 +25°C° 0.2 mm 4 mps 713 mmHg 41%
    03:00 +23°C° 0.2 mm 4 mps 713 mmHg 42%
    04:00 +23°C° 0.2 mm 4 mps 713 mmHg 44%
    05:00 +24°C° 0.2 mm 3 mps 713 mmHg 46%
    06:00 +25°C° 0 mm 3 mps 714 mmHg 42%
    07:00 +27°C° 0 mm 2 mps 714 mmHg 39%
    08:00 +29°C° 0 mm 2 mps 715 mmHg 36%
    09:00 +30°C° 0 mm 2 mps 715 mmHg 32%
    10:00 +32°C° 0 mm 2 mps 715 mmHg 29%
    11:00 +34°C° 0 mm 2 mps 715 mmHg 25%
    12:00 +35°C° 0 mm 2 mps 715 mmHg 24%
    13:00 +35°C° 0 mm 2 mps 715 mmHg 23%
    14:00 +36°C° 0 mm 2 mps 714 mmHg 22%
    15:00 +36°C° 0 mm 2 mps 714 mmHg 22%
    16:00 +36°C° 0 mm 2 mps 714 mmHg 22%
    17:00 +36°C° 0 mm 2 mps 713 mmHg 22%
    18:00 +34°C° 0 mm 2 mps 713 mmHg 25%
    19:00 +31°C° 0 mm 2 mps 714 mmHg 27%
    20:00 +29°C° 0 mm 2 mps 714 mmHg 30%
    21:00 +29°C° 0 mm 3 mps 714 mmHg 31%
    22:00 +28°C° 0 mm 3 mps 714 mmHg 31%
    23:00 +27°C° 0 mm 4 mps 715 mmHg 31%

    Day after tomorrow, 27 April, Saturday

    Time Temperature Precipitation Wind Pressure Humidity
    00:00 +27°C° 0 mm 4 mps 714 mmHg 29%
    01:00 +26°C° 0 mm 4 mps 714 mmHg 28%
    02:00 +26°C° 0 mm 4 mps 714 mmHg 26%
    03:00 +26°C° 0 mm 3 mps 714 mmHg 27%
    04:00 +25°C° 0 mm 3 mps 714 mmHg 28%
    05:00 +25°C° 0 mm 3 mps 714 mmHg 28%
    06:00 +26°C° 0 mm 3 mps 714 mmHg 28%
    07:00 +28°C° 0 mm 3 mps 715 mmHg 27%
    08:00 +30°C° 0 mm 2 mps 715 mmHg 27%
    09:00 +31°C° 0 mm 3 mps 715 mmHg 24%
    10:00 +34°C° 0 mm 3 mps 716 mmHg 21%
    11:00 +36°C° 0 mm 3 mps 716 mmHg 18%
    12:00 +36°C° 0 mm 3 mps 715 mmHg 18%
    13:00 +37°C° 0 mm 3 mps 715 mmHg 17%
    14:00 +37°C° 0 mm 3 mps 714 mmHg 16%
    15:00 +37°C° 0 mm 3 mps 714 mmHg 16%
    16:00 +36°C° 0 mm 3 mps 713 mmHg 17%
    17:00 +36°C° 0 mm 3 mps 713 mmHg 18%
    18:00 +34°C° 0 mm 2 mps 713 mmHg 20%
    19:00 +31°C° 0 mm 2 mps 713 mmHg 22%
    20:00 +29°C° 0 mm 1 mps 713 mmHg 25%
    21:00 +29°C° 0 mm 2 mps 713 mmHg 26%
    22:00 +28°C° 0 mm 3 mps 713 mmHg 26%
    23:00 +27°C° 0 mm 3 mps 713 mmHg 27%

    28 April, Sunday

    Time Temperature Precipitation Wind Pressure Humidity
    00:00 +27°C° 0 mm 3 mps 713 mmHg 26%
    01:00 +26°C° 0 mm 3 mps 713 mmHg 26%
    02:00 +26°C° 0 mm 3 mps 712 mmHg 25%
    03:00 +25°C° 0 mm 3 mps 712 mmHg 25%
    04:00 +25°C° 0 mm 3 mps 712 mmHg 24%
    05:00 +24°C° 0 mm 3 mps 712 mmHg 24%
    06:00 +26°C° 0 mm 3 mps 712 mmHg 23%
    07:00 +28°C° 0 mm 3 mps 713 mmHg 23%
    08:00 +30°C° 0 mm 3 mps 713 mmHg 22%
    09:00 +33°C° 0 mm 3 mps 714 mmHg 20%
    10:00 +34°C° 0 mm 2 mps 714 mmHg 17%
    11:00 +36°C° 0 mm 2 mps 714 mmHg 15%
    12:00 +37°C° 0 mm 3 mps 713 mmHg 14%
    13:00 +37°C° 0 mm 3 mps 713 mmHg 13%
    14:00 +38°C° 0 mm 3 mps 713 mmHg 12%
    15:00 +37°C° 0 mm 4 mps 712 mmHg 13%
    16:00 +37°C° 0 mm 4 mps 712 mmHg 14%
    17:00 +36°C° 0 mm 4 mps 711 mmHg 14%
    18:00 +34°C° 0 mm 3 mps 711 mmHg 16%
    19:00 +31°C° 0 mm 3 mps 711 mmHg 18%
    20:00 +29°C° 0 mm 2 mps 711 mmHg 20%
    21:00 +29°C° 0 mm 2 mps 712 mmHg 21%
    22:00 +28°C° 0 mm 3 mps 712 mmHg 21%
    23:00 +27°C° 0 mm 3 mps 712 mmHg 22%

    29 April, Monday

    Time Temperature Precipitation Wind Pressure Humidity
    00:00 +27°C° 0 mm 3 mps 712 mmHg 22%
    01:00 +26°C° 0 mm 3 mps 711 mmHg 23%
    02:00 +26°C° 0 mm 3 mps 711 mmHg 23%
    03:00 +25°C° 0 mm 3 mps 711 mmHg 24%
    04:00 +25°C° 0 mm 3 mps 711 mmHg 24%
    05:00 +24°C° 0 mm 3 mps 711 mmHg 24%
    06:00 +26°C° 0 mm 3 mps 712 mmHg 23%
    07:00 +28°C° 0 mm 3 mps 712 mmHg 23%
    08:00 +30°C° 0 mm 3 mps 713 mmHg 23%
    09:00 +32°C° 0 mm 2 mps 713 mmHg 19%
    10:00 +35°C° 0 mm 2 mps 713 mmHg 16%
    11:00 +36°C° 0 mm 1 mps 713 mmHg 12%
    12:00 +37°C° 0 mm 1 mps 713 mmHg 11%
    13:00 +38°C° 0 mm 2 mps 712 mmHg 11%
    14:00 +39°C° 0 mm 2 mps 711 mmHg 10%
    15:00 +39°C° 0 mm 2 mps 711 mmHg 11%
    16:00 +38°C° 0 mm 3 mps 711 mmHg 11%
    17:00 +38°C° 0 mm 3 mps 710 mmHg 12%
    18:00 +36°C° 0 mm 2 mps 710 mmHg 14%
    19:00 +34°C° 0 mm 2 mps 710 mmHg 16%
    20:00 +31°C° 0 mm 2 mps 710 mmHg 18%
    21:00 +30°C° 0 mm 2 mps 710 mmHg 19%
    22:00 +29°C° 0 mm 3 mps 710 mmHg 19%
    23:00 +29°C° 0 mm 4 mps 710 mmHg 20%

    30 April, Tuesday

    Time Temperature Precipitation Wind Pressure Humidity
    00:00 +28°C° 0 mm 3 mps 710 mmHg 20%
    01:00 +28°C° 0 mm 3 mps 710 mmHg 20%
    02:00 +27°C° 0 mm 3 mps 709 mmHg 20%
    03:00 +27°C° 0 mm 3 mps 709 mmHg 20%
    04:00 +26°C° 0 mm 3 mps 709 mmHg 20%
    05:00 +26°C° 0 mm 3 mps 709 mmHg 20%
    06:00 +28°C° 0.1 mm 3 mps 710 mmHg 21%
    07:00 +29°C° 0.1 mm 4 mps 711 mmHg 21%
    08:00 +32°C° 0.1 mm 4 mps 711 mmHg 22%
    09:00 +34°C° 0 mm 3 mps 712 mmHg 19%
    10:00 +35°C° 0 mm 2 mps 712 mmHg 16%
    11:00 +37°C° 0 mm 2 mps 712 mmHg 13%
    12:00 +38°C° 0 mm 2 mps 712 mmHg 14%
    13:00 +38°C° 0 mm 3 mps 711 mmHg 14%
    14:00 +38°C° 0 mm 3 mps 711 mmHg 15%
    15:00 +36°C° 0 mm 5 mps 710 mmHg 18%
    16:00 +35°C° 0 mm 6 mps 710 mmHg 20%
    17:00 +34°C° 0 mm 7 mps 709 mmHg 23%
    18:00 +33°C° 0 mm 6 mps 709 mmHg 23%
    19:00 +32°C° 0 mm 6 mps 709 mmHg 24%
    20:00 +30°C° 0 mm 6 mps 709 mmHg 24%
    21:00 +29°C° 0 mm 5 mps 709 mmHg 26%
    22:00 +28°C° 0 mm 4 mps 709 mmHg 29%
    23:00 +27°C° 0 mm 4 mps 709 mmHg 31%
    Show more